Location: Ravensburg
(47.7866°N, 9.6124°E)
Time: 02:38:44
(UTC+02:00)

AO-73 - Pass Details

Date: 15 March 2026
Orbit: 514 x 567 km, 97.8° (Epoch: 12 April)

Event Time Altitude Azimuth Distance (km) Brightness Sun altitude
Rises 03:31:07 0° 23° (NNE) 2,671 ? -30.1°
Reaches altitude 10° 03:33:27 10° 35° (NE) 1,769 ? -29.8°
Enters shadow 03:36:08 27° 77° (ENE) 1,033 ? -29.4°
